Location: Treviso
(45.6669°N, 12.2430°E)
Time: 18:49:08
(UTC+02:00)

CUBESAT XI-V - Pass Details

Date: 29 April 2019
Orbit: 668 x 694 km, 98.0° (Epoch: 21 May)

Event Time Altitude Azimuth Distance (km) Brightness Sun altitude
Exits shadow 05:10:22 11° 247° (WSW) 2,046 ? -9.0°
Maximum altitude 05:12:13 14° 271° (W) 1,895 ? -8.7°
Drops below altitude 10° 05:14:33 10° 302° (WNW) 2,135 ? -8.4°
Sets 05:17:57 0° 328° (NNW) 3,051 ? -7.9°
